Weather Roundup
Issued by NWS

Home | Current Version | Previous Version | Graphics & Text | Print | Product List | Glossary Off
Versions: 1 2 3 4 5 6 7 8 9 10 11 12 13 14 15 16 17 18 19 20 21 22 23 24 25 26 27 28 29 30 31 32 33 34 35 36 37 38 39 40 41 42 43 44 45 46 47 48 49 50

000
NZUS93 KARX 220059
HRRWXR

CURRENT HOURLY OBSERVATIONS ACROSS
MUCH OF THE UPPER MISSISSIPPI VALLEY
NATIONAL WEATHER SERVICE LA CROSSE WI
700 PM CST SAT JAN 21 2017


...SOUTHEAST MINNESOTA...


CITY           SKY/WX    TMP DP  RH WIND       PRES   REMARKS
ROCHESTER      CLOUDY    34  34 100 SW8       29.48R FOG     WCI  27
ROCHESTER/MAYO CLOUDY    36  37 100 S3        29.49R VSB 1/2
WINONA         CLOUDY    36  36 100 CALM      29.50R FOG
AUSTIN         FOG       36  36 100 CALM      29.48R VSB 1/2
ALBERT LEA     FOG       36  36 100 CALM      29.48R VSB 1/2
DODGE CENTER   FOG       34  34 100 CALM      29.48R VSB 3/4
PRESTON        FOG       35  34  97 SW7       29.50R VSB 1/2 WCI  29
OWATONNA       FOG       36  34  93 CALM      29.48R VSB 1/4
FARIBAULT      NOT AVBL
$$

...ELSEWHERE IN MINNESOTA...


CITY           SKY/WX    TMP DP  RH WIND       PRES   REMARKS
MINNEAPOLIS    FOG       37  35  92 CALM      29.48R VSB 3/4
INTNL FALLS    CLOUDY    35  33  92 NE5       29.53R WCI  31
DULUTH         DRZL/FOG  34  34 100 E8        29.49R VSB 1   WCI  27
RED WING       FOG       36  34  93 CALM      29.48R VSB 1/4
REDWOOD FALLS  FOG       35  34  96 CALM      29.47R VSB 1/4
MANKATO        FOG       35  34  96 CALM      29.48R VSB 1/4
WORTHINGTON    CLOUDY    31  30  96 W13       29.49R FOG     WCI  21
FAIRMONT       CLOUDY    34  32  92 W10       29.49R WCI  26
$$

...SOUTHWEST WISCONSIN...


CITY           SKY/WX    TMP DP  RH WIND       PRES   REMARKS
LA CROSSE      CLOUDY    43  40  89 SE5       29.50R FOG
PRAIRIE DU CHI CLOUDY    41  40  97 CALM      29.52R FOG
BOSCOBEL       CLOUDY    43  41  93 SW5       29.52R FOG
LONE ROCK      CLOUDY    39  37  92 CALM      29.53R FOG
PLATTEVILLE    CLOUDY    41  41 100 CALM      29.53R
FORT MC COY    FOG       37  37 100 CALM      29.50R VSB 1/2
CAMP DOUGLAS   FOG       37  37 100 E3        29.50R VSB 3/4
MAUSTON-NEW LI FOG       38  38 100 CALM      29.49S VSB 1/2
VIROQUA        CLOUDY    38  38 100 S7        29.49R VSB 1/4 WCI  33
WIS DELLS      FOG       40  40  99 CALM      29.51R VSB 1/4
$$

...ELSEWHERE IN WISCONSIN...


CITY           SKY/WX    TMP DP  RH WIND       PRES   REMARKS
MILWAUKEE      PTCLDY    48  42  80 W6        29.54R
MADISON        CLOUDY    43  41  93 CALM      29.54R
GREEN BAY      FOG       36  36 100 CALM      29.51R VSB 1/4
EAU CLAIRE     NOT AVBL
BLACK RVR FLS  FOG       41  41 100 S5        29.49R VSB 1/4
MEDFORD        FOG       34  34  99 SE3       29.46R VSB 1/4
WAUSAU         FOG       35  35 100 CALM      29.48R VSB 3/4
WIS RAPIDS     FOG       37  37 100 S3        29.51R VSB 1/2
MARSHFIELD     FOG       35  35 100 CALM      29.47R VSB 1/4
RICE LAKE      FOG       34  34 100 CALM      29.48R VSB 1/4
$$

...NORTHEAST IOWA...


CITY           SKY/WX    TMP DP  RH WIND       PRES   REMARKS
WATERLOO       CLOUDY    41  38  89 W9        29.52R
DUBUQUE        CLOUDY    41  40  96 SW9       29.53R FOG
DECORAH        FOG       37  37 100 SW6       29.50R VSB 1/4 WCI  33
MASON CITY     CLOUDY    36  36 100 SW9       29.50R WCI  29
CHARLES CITY   FOG       37  37 100 SW3       29.51R VSB 1/2
OELWEIN        NOT AVBL
$$

...ELSEWHERE IN IOWA...


CITY           SKY/WX    TMP DP  RH WIND       PRES   REMARKS
DES MOINES     PTCLDY    41  38  89 S3        29.54R
IOWA CITY      CLOUDY    44  40  85 SW6       29.57R
FORT DODGE     CLOUDY    34  30  86 CALM      29.51R
MARSHALLTOWN   CLOUDY    39  38  96 SW6       29.52R WCI  35
CEDAR RAPIDS   CLOUDY    40  39  97 SW7       29.54R
$$

...NORTHERN ILLINOIS...


CITY           SKY/WX    TMP DP  RH WIND       PRES   REMARKS
CHICAGO-OHARE  CLEAR     48  42  80 SW3       29.54R
CHICAGO-MIDWAY PTCLDY    48  40  73 SW5       29.55R
MOLINE         CLOUDY    43  40  89 CALM      29.56R
ROCKFORD       CLOUDY    44  41  89 CALM      29.57R FOG
PEORIA         CLEAR     49  43  80 CALM      29.56R
$$

NOTE: "FAIR" INDICATES FEW OR NO CLOUDS BELOW 12,000 FEET WITH NO
SIGNIFICANT WEATHER AND/OR OBSTRUCTIONS TO VISIBILITY. WIND
SPEEDS ARE IN MILES-PER-HOUR.




USA.gov is the U.S. government's official web portal to all federal, state and local government web resources and services.